Wind_Speed
5 5 5 5 4 5 5 5 5 5 5 4 4 4 4 4 4 4 4 4 4 4 4 4 4 3 3 3 3 3 4 4 4 5 5 5 5 5 5 5 5 6 6 6 6 6 5 6 6
5 5 5 5 5 5 5 5 6 6 5 5 5 5 4 5 5 5 5 4 4 4 4 5 4 4 4 4 4 5 5 5 5 5 5 5 6 6 6 6 6 6 6 6 7 7 7 7 7
5 5 5 5 6 6 6 6 6 6 5 5 5 5 4 5 5 5 5 5 5 5 5 5 5 5 5 5 5 5 5 5 6 5 6 5 6 6 6 6 6 7 7 7 7 8 8 8 8
4 4 4 5 5 6 6 6 6 5 5 5 5 5 5 5 5 5 5 6 5 5 5 5 5 5 6 6 6 6 6 6 6 6 5 5 5 6 6 7 7 7 8 8 8 9 9 9 9
4 4 4 4 5 6 6 6 6 6 6 6 6 6 6 6 6 6 6 6 6 6 5 6 6 6 6 6 7 7 7 7 6 7 7 7 7 6 6 7 7 7 8 8 9 10 10 10 10
5 5 5 5 5 5 6 6 6 6 6 7 7 7 7 7 7 7 7 7 7 7 7 6 6 7 7 7 6 7 7 7 7 7 8 8 8 8 8 8 9 9 8 8 9 9 9 10 10
6 6 6 6 6 6 6 7 7 7 8 7 8 8 8 8 8 8 8 8 8 8 8 7 7 7 7 8 8 8 8 8 8 8 8 8 9 9 9 9 9 9 9 9 10 10 10 10 11
7 7 7 7 7 7 7 7 8 8 9 9 8 8 8 8 8 8 8 8 8 8 8 8 8 9 8 8 8 8 9 9 9 9 9 9 9 8 8 9 9 9 10 10 10 11 11 11 12
8 8 7 8 8 8 7 8 8 9 9 9 9 9 9 9 8 9 8 9 9 9 8 8 8 9 9 9 9 9 9 9 10 10 9 9 9 9 9 9 9 10 10 11 11 11 11 11 11
8 8 9 9 9 8 8 8 8 9 9 9 9 9 10 9 9 9 9 9 9 9 9 8 8 8 9 9 9 9 10 10 9 9 9 9 9 9 10 10 10 10 11 11 11 12 11 11 11
9 9 9 9 9 9 9 9 9 9 9 9 9 9 9 10 10 10 10 10 10 10 10 10 9 8 8 9 9 9 9 9 9 9 9 9 9 9 9 9 10 10 10 11 11 11 11 11 11
9 9 10 10 10 9 9 9 9 9 10 9 9 9 8 9 10 10 10 10 10 10 10 10 10 9 9 9 10 9 9 9 9 9 9 9 9 9 10 10 10 10 10 11 11 11 11 12 12
10 10 10 10 10 10 10 10 10 10 10 10 10 9 9 9 10 11 11 11 11 11 11 10 10 10 10 10 10 10 10 9 9 9 8 9 9 10 11 11 11 11 11 11 11 11 12 12 12
10 11 11 11 11 11 11 11 11 11 12 12 11 11 11 10 10 10 11 11 11 11 11 10 10 10 10 10 10 10 10 9 9 9 9 9 10 10 11 11 11 11 11 12 12 12 12 12 12
11 11 11 12 12 11 12 12 12 12 12 13 13 12 12 12 12 11 11 11 11 11 11 11 11 11 11 11 11 10 10 10 9 10 9 9 9 10 10 11 11 11 11 11 12 11 11 12 12
13 13 13 13 13 13 12 12 13 13 13 13 13 13 13 13 12 12 11 11 11 11 12 12 12 12 11 11 11 10 10 11 10 10 10 10 10 10 10 10 11 11 11 11 11 12 12 12 12
13 14 14 14 13 13 13 12 12 13 13 14 14 14 14 14 14 13 13 12 11 11 12 12 12 12 12 11 11 10 11 11 11 10 10 10 11 11 11 11 11 11 12 11 12 12 13 12 13
14 14 14 15 14 14 13 13 13 13 13 14 14 15 15 15 15 14 14 13 13 12 12 13 12 12 12 12 11 11 11 12 12 12 11 11 12 12 11 11 11 12 12 13 12 13 13 13 13
14 14 15 15 14 15 14 15 14 14 14 14 14 14 14 14 14 15 15 14 14 13 13 14 13 12 12 12 12 12 12 12 12 12 12 12 12 12 12 12 12 12 12 12 12 13 13 13 14
14 14 15 15 14 15 15 15 15 15 14 14 14 15 15 14 14 15 15 15 14 14 14 14 13 13 13 13 13 13 13 13 13 13 13 12 12 12 12 12 13 12 12 12 13 13 13 13 13
14 15 15 16 15 15 15 15 16 15 15 15 15 15 16 16 16 16 16 16 16 15 15 14 14 13 14 14 14 15 15 15 14 14 13 13 13 13 13 12 13 12 13 13 13 13 13 13 13
15 15 16 16 16 16 16 16 16 16 15 15 15 16 16 17 17 17 17 17 17 17 16 15 14 14 14 14 15 16 15 15 15 14 14 14 14 14 13 13 13 13 13 13 13 13 13 13 14
15 15 16 16 16 17 17 17 16 16 17 16 16 16 16 17 17 17 17 17 17 17 17 16 16 16 16 16 16 16 16 15 15 15 15 15 14 14 14 14 14 14 13 13 13 13 13 14 14
16 16 16 16 17 18 17 18 17 17 17 17 17 16 16 16 17 17 18 18 18 18 18 18 17 17 17 17 17 16 16 16 15 15 16 16 16 15 14 14 14 14 14 14 14 14 14 14 14
17 16 16 17 18 18 18 19 18 17 16 17 17 17 17 17 17 18 18 19 19 19 19 19 18 19 19 18 17 17 17 16 16 15 16 16 16 16 15 16 15 15 16 15 15 15 15 15 15
17 17 17 17 18 18 18 18 17 17 16 17 17 17 17 17 17 17 19 19 19 19 19 19 19 19 18 18 18 17 17 16 16 16 16 17 17 17 17 17 17 17 17 17 17 16 16 16 16
18 18 18 18 19 19 19 18 17 17 17 17 17 17 17 17 17 18 19 19 19 19 19 19 19 19 18 18 18 18 17 17 17 17 17 17 17 18 18 18 18 18 18 18 18 17 17 17 17
18 19 19 19 19 20 20 19 17 17 17 17 18 18 18 18 18 18 18 19 20 20 19 19 19 19 19 19 18 18 18 19 18 18 18 18 18 19 19 19 19 19 19 19 19 19 18 18 19
19 19 20 21 21 21 21 20 18 18 17 17 18 18 18 18 18 18 18 18 19 20 20 20 20 20 20 20 19 20 19 19 19 19 19 19 19 19 19 19 20 20 20 20 19 19 18 18 19
20 20 20 21 22 22 21 21 19 18 19 19 18 18 19 19 19 19 19 19 19 19 20 20 20 20 20 20 20 20 20 20 20 20 19 20 20 20 20 20 20 19 19 19 19 19 19 19 19
Wind_Direction
243 241 234 226 220 226 225 225 227 223 226 224 220 221 221 220 218 221 218 216 215 213 211 218 232 236 239 247 253 246 229 216 220 222 224 224 226 230 237 241 236 232 234 233 235 241 240 242 239
242 243 241 234 228 228 226 229 233 232 234 229 225 226 227 225 225 226 223 221 218 217 221 220 234 241 248 254 252 238 236 226 222 228 235 233 232 233 238 241 237 237 239 240 237 242 245 242 242
240 241 243 233 224 222 225 228 236 238 236 232 231 234 235 232 231 233 228 221 222 226 227 225 236 242 248 252 254 246 248 231 222 226 232 236 237 240 241 243 246 244 245 248 244 246 247 248 249
240 243 246 236 226 226 225 224 231 235 238 237 239 242 240 239 240 239 238 230 229 230 231 231 237 244 248 250 252 254 252 248 244 235 238 245 247 245 242 246 250 250 247 251 252 251 250 250 251
239 241 243 240 231 230 227 227 228 236 243 244 245 245 242 241 242 244 243 241 241 239 238 240 246 248 245 247 248 254 255 255 252 247 250 252 254 252 251 252 252 251 252 254 253 255 254 254 254
239 239 240 240 238 235 232 229 234 244 249 247 244 245 248 246 244 244 245 244 245 249 248 247 251 251 249 250 253 256 258 260 258 255 255 255 257 257 254 256 256 256 255 256 257 257 257 257 256
244 240 240 243 245 242 239 240 244 245 253 253 249 248 250 247 246 246 247 247 246 251 255 252 254 257 255 253 256 257 260 262 261 262 262 261 260 258 257 259 260 259 260 259 258 259 259 256 257
244 243 241 243 246 248 248 246 249 250 254 251 250 248 248 247 246 245 247 249 251 251 252 253 253 257 259 260 260 262 263 261 259 260 260 259 260 262 262 261 260 260 263 262 262 263 262 259 258
241 245 247 247 249 250 250 250 254 252 250 249 248 248 247 247 246 248 248 250 254 252 251 253 255 254 258 260 264 267 266 264 263 263 264 261 260 261 262 264 263 265 265 265 265 265 265 262 260
245 248 249 249 249 250 251 253 255 253 248 249 250 248 244 245 243 244 247 252 254 251 250 251 254 255 259 259 262 266 268 268 266 264 264 261 260 260 261 263 263 265 266 267 266 265 265 262 260
247 248 249 249 248 248 252 254 255 252 248 248 250 250 248 244 244 245 249 253 253 254 256 257 260 259 262 263 263 264 265 266 264 262 261 260 260 262 264 265 265 266 267 267 266 266 266 265 262
245 246 248 251 251 251 253 254 255 253 250 250 249 250 248 245 246 248 251 254 254 255 259 261 264 265 265 267 268 266 265 265 262 261 260 260 263 265 266 265 267 266 268 268 268 268 268 268 266
247 248 251 255 257 257 255 254 255 253 251 248 250 250 249 248 248 251 252 253 256 257 258 262 263 264 263 268 271 267 265 264 262 259 259 262 263 265 265 265 265 266 268 269 269 269 269 270 267
251 252 254 258 259 258 256 256 255 252 251 249 250 252 251 249 248 251 253 255 257 258 258 261 261 263 265 265 265 267 265 263 262 259 259 262 265 266 265 264 263 265 267 270 271 270 269 266 262
252 253 255 259 260 259 257 255 254 253 250 250 250 254 254 251 249 251 254 257 257 257 259 262 262 261 264 264 265 267 267 266 264 260 261 259 265 268 266 264 265 265 266 269 271 270 269 267 264
251 252 255 258 260 260 258 255 253 252 250 250 250 253 255 252 251 253 255 257 258 260 260 262 262 261 263 263 264 264 266 266 264 262 259 261 267 271 269 266 267 266 267 269 272 272 271 270 268
252 256 257 258 260 261 259 256 253 252 252 253 254 256 256 255 255 256 257 258 261 262 264 263 263 262 261 259 260 262 267 269 267 266 262 262 268 272 270 271 271 269 269 269 272 273 271 270 270
253 256 258 261 261 261 259 255 251 252 253 254 255 257 257 256 256 257 257 260 263 265 266 267 265 261 258 256 258 261 263 265 266 266 265 266 270 272 271 272 273 272 272 271 274 274 271 272 272
255 258 259 261 260 260 259 256 253 253 254 254 255 256 256 258 257 256 256 258 261 263 265 266 266 261 257 259 260 262 264 264 265 266 267 268 271 273 274 274 273 272 272 273 274 276 275 276 273
257 259 259 261 259 259 257 257 255 253 255 256 256 255 256 257 256 256 256 257 259 263 265 265 264 262 261 260 261 264 265 264 263 266 268 270 271 273 275 275 273 273 276 275 275 277 276 281 279
257 259 259 259 259 260 259 257 257 255 255 255 255 256 256 256 257 258 257 258 261 264 266 264 263 264 265 263 264 266 267 265 264 266 268 269 271 273 272 274 274 275 277 278 277 277 279 281 282
258 259 259 259 259 260 259 257 255 257 257 257 257 257 258 258 258 257 257 260 261 263 265 264 262 262 265 266 268 267 266 264 262 263 265 268 270 272 272 273 274 275 276 278 280 280 281 282 284
258 261 261 259 259 260 260 258 256 255 256 258 260 260 261 260 259 258 259 260 260 261 261 262 261 261 263 265 266 266 263 262 260 260 263 266 269 273 274 273 272 274 276 277 281 283 285 284 283
258 259 259 259 260 259 258 257 255 254 257 259 260 261 262 261 259 259 258 258 259 260 261 263 264 262 262 264 264 265 263 262 261 260 262 264 267 270 272 273 274 274 276 277 280 284 285 283 283
256 256 258 259 259 259 256 255 255 256 256 259 262 262 262 263 262 259 259 260 260 261 262 261 261 262 262 262 262 264 264 261 259 260 263 265 266 267 268 271 272 274 275 275 278 281 282 282 282
256 254 253 255 257 258 257 256 255 256 259 259 260 262 263 264 263 262 261 260 261 262 262 262 262 262 261 260 261 262 263 262 262 263 265 267 267 268 269 270 270 272 273 273 275 277 278 279 281
258 255 254 255 257 256 257 257 255 256 258 258 259 262 263 264 265 265 264 262 261 262 261 262 261 262 262 261 260 261 262 262 264 264 265 266 267 269 270 269 269 272 273 273 273 275 275 276 278
257 255 254 256 258 258 260 259 259 257 257 257 258 261 263 265 266 266 264 263 262 261 260 260 260 263 263 263 260 259 261 261 262 263 265 266 266 269 270 270 270 271 271 272 273 272 272 273 276
256 255 256 257 260 260 260 260 259 258 258 257 259 262 264 265 267 267 265 264 262 260 259 260 263 263 263 263 261 260 261 261 262 263 264 264 266 267 269 271 272 273 272 272 272 272 273 275 277
258 258 259 259 261 261 261 262 261 262 261 260 261 262 264 266 267 267 266 264 261 260 260 260 261 262 262 263 262 260 262 263 263 263 263 264 266 267 269 270 273 273 274 273 273 273 275 277 279
Height
5868 5868 5869 5871 5872 5872 5872 5872 5872 5872 5872 5873 5873 5873 5873 5873 5874 5876 5873 5872 5872 5872 5872 5872 5872 5872 5872 5872 5871 5871 5870 5870 5870 5870 5871 5871 5871 5871 5872 5872 5872 5872 5872 5872 5872 5873 5873 5873 5873
5867 5868 5869 5870 5870 5870 5871 5871 5871 5871 5871 5871 5871 5872 5872 5872 5872 5872 5871 5871 5871 5871 5871 5871 5871 5871 5871 5871 5871 5870 5869 5869 5869 5870 5870 5870 5870 5870 5870 5870 5871 5871 5871 5871 5871 5871 5872 5872 5872
5866 5867 5868 5869 5869 5870 5870 5870 5869 5870 5870 5870 5870 5871 5871 5871 5870 5870 5870 5870 5870 5870 5870 5870 5870 5870 5870 5870 5870 5869 5869 5868 5868 5868 5869 5869 5869 5869 5869 5869 5869 5870 5869 5869 5870 5870 5870 5871 5871
5865 5866 5867 5868 5867 5868 5868 5868 5868 5868 5869 5869 5869 5870 5869 5869 5869 5869 5869 5869 5869 5869 5869 5869 5869 5869 5869 5869 5869 5868 5868 5868 5868 5868 5868 5868 5868 5868 5868 5868 5868 5868 5868 5868 5868 5869 5869 5869 5869
5864 5865 5866 5866 5866 5866 5867 5867 5867 5867 5868 5868 5868 5868 5868 5868 5868 5868 5868 5868 5868 5868 5868 5868 5868 5868 5868 5867 5867 5867 5867 5867 5867 5866 5867 5867 5867 5867 5867 5867 5867 5867 5867 5867 5867 5867 5867 5867 5867
5864 5864 5865 5865 5865 5865 5865 5866 5866 5866 5866 5866 5867 5867 5866 5866 5866 5866 5866 5866 5866 5866 5866 5867 5867 5866 5866 5866 5866 5866 5865 5865 5865 5865 5865 5865 5865 5865 5865 5865 5865 5865 5865 5865 5865 5865 5865 5865 5865
5863 5863 5863 5864 5864 5864 5864 5864 5864 5865 5865 5865 5865 5865 5865 5865 5865 5865 5865 5865 5865 5865 5865 5865 5865 5865 5865 5865 5864 5864 5864 5864 5864 5864 5863 5863 5863 5863 5863 5863 5863 5863 5863 5864 5863 5863 5863 5863 5863
5860 5862 5861 5862 5862 5863 5863 5863 5863 5863 5863 5863 5864 5864 5864 5864 5863 5863 5863 5863 5863 5863 5864 5864 5864 5864 5863 5863 5863 5863 5862 5862 5862 5862 5862 5862 5862 5861 5861 5862 5862 5862 5861 5861 5861 5861 5861 5861 5861
5858 5861 5860 5860 5860 5861 5861 5861 5861 5861 5861 5861 5861 5862 5862 5862 5862 5862 5862 5862 5862 5862 5862 5862 5862 5862 5861 5861 5861 5861 5860 5860 5860 5860 5860 5860 5860 5859 5859 5860 5860 5860 5859 5859 5859 5859 5859 5859 5858
5856 5858 5858 5858 5858 5859 5859 5859 5859 5859 5859 5859 5859 5860 5860 5860 5860 5860 5860 5860 5860 5860 5860 5860 5860 5860 5860 5859 5859 5859 5858 5858 5858 5858 5858 5858 5858 5857 5858 5858 5857 5857 5857 5857 5857 5856 5856 5856 5856
5854 5855 5855 5855 5856 5856 5857 5857 5857 5857 5857 5857 5857 5858 5858 5858 5858 5858 5858 5858 5858 5858 5858 5858 5858 5858 5858 5858 5857 5857 5856 5856 5856 5856 5856 5856 5856 5856 5855 5855 5855 5855 5855 5854 5854 5853 5853 5853 5853
5852 5852 5853 5853 5853 5854 5854 5854 5855 5855 5855 5855 5855 5855 5856 5856 5856 5856 5856 5856 5856 5856 5856 5856 5856 5856 5856 5856 5855 5855 5855 5854 5854 5854 5854 5854 5854 5854 5853 5853 5853 5853 5852 5852 5851 5851 5851 5850 5850
5849 5850 5850 5850 5851 5851 5852 5852 5852 5852 5852 5852 5853 5853 5854 5854 5854 5854 5854 5854 5854 5854 5854 5854 5854 5854 5854 5853 5853 5853 5852 5852 5852 5852 5852 5852 5852 5851 5851 5851 5850 5850 5850 5849 5849 5849 5848 5848 5847
5847 5847 5847 5848 5848 5849 5849 5849 5850 5850 5850 5850 5850 5851 5851 5851 5852 5852 5852 5852 5852 5851 5851 5851 5852 5852 5852 5851 5851 5851 5850 5850 5850 5850 5850 5849 5849 5849 5849 5848 5848 5848 5847 5847 5846 5846 5845 5845 5844
5843 5844 5845 5845 5845 5846 5847 5847 5847 5847 5847 5847 5848 5848 5848 5849 5849 5849 5849 5849 5849 5849 5849 5849 5849 5849 5849 5849 5849 5848 5848 5848 5848 5847 5847 5847 5847 5847 5846 5846 5845 5845 5844 5844 5843 5843 5842 5842 5842
5840 5841 5842 5842 5842 5843 5845 5844 5844 5843 5844 5844 5845 5845 5845 5846 5846 5846 5846 5846 5846 5846 5846 5847 5847 5847 5847 5846 5846 5846 5846 5846 5845 5845 5845 5844 5844 5844 5844 5843 5843 5842 5842 5841 5841 5840 5839 5839 5838
5836 5837 5838 5839 5839 5839 5840 5840 5840 5840 5840 5841 5841 5842 5842 5843 5843 5843 5844 5844 5844 5844 5844 5844 5844 5844 5844 5844 5843 5844 5844 5843 5843 5843 5842 5842 5842 5841 5841 5840 5840 5839 5839 5838 5838 5837 5836 5836 5835
5833 5834 5834 5835 5835 5836 5836 5837 5837 5837 5837 5838 5838 5839 5839 5840 5840 5840 5841 5841 5841 5841 5841 5841 5841 5841 5841 5841 5841 5841 5841 5841 5840 5840 5840 5839 5839 5838 5838 5838 5837 5836 5836 5835 5835 5834 5833 5833 5832
5830 5830 5831 5831 5831 5832 5832 5833 5833 5833 5834 5834 5835 5835 5836 5836 5837 5837 5837 5838 5838 5838 5838 5838 5838 5838 5838 5838 5838 5838 5838 5838 5838 5837 5837 5836 5836 5835 5835 5835 5834 5834 5833 5832 5831 5831 5830 5829 5828
5825 5826 5827 5827 5827 5828 5828 5829 5830 5830 5830 5831 5831 5831 5832 5833 5833 5834 5834 5834 5834 5835 5834 5834 5835 5835 5835 5835 5835 5835 5835 5835 5835 5834 5834 5833 5833 5832 5832 5831 5831 5830 5830 5829 5828 5827 5827 5826 5825
5821 5822 5823 5823 5824 5824 5825 5826 5826 5826 5826 5827 5827 5828 5828 5829 5829 5830 5830 5831 5831 5831 5831 5831 5831 5831 5831 5832 5832 5832 5832 5832 5832 5831 5831 5830 5830 5829 5829 5828 5827 5827 5826 5826 5825 5824 5823 5822 5822
5818 5818 5819 5819 5820 5820 5821 5822 5822 5822 5823 5823 5824 5824 5824 5825 5825 5826 5826 5827 5827 5827 5827 5827 5828 5828 5828 5828 5828 5828 5828 5828 5828 5828 5827 5827 5827 5826 5825 5825 5824 5823 5823 5822 5821 5821 5820 5819 5818
5814 5814 5815 5815 5815 5816 5817 5818 5819 5818 5818 5819 5819 5820 5820 5820 5821 5821 5822 5823 5823 5823 5823 5823 5824 5824 5824 5824 5824 5824 5824 5824 5824 5824 5824 5824 5823 5823 5822 5821 5821 5820 5819 5819 5818 5817 5816 5815 5814
5809 5810 5810 5810 5811 5812 5812 5813 5814 5814 5814 5815 5815 5815 5815 5816 5816 5817 5817 5818 5818 5819 5819 5819 5819 5820 5820 5820 5820 5820 5820 5820 5820 5820 5820 5820 5819 5819 5818 5818 5817 5816 5816 5815 5814 5813 5812 5811 5810
5804 5805 5806 5806 5806 5807 5807 5808 5810 5809 5810 5810 5810 5810 5811 5811 5811 5812 5812 5813 5813 5814 5814 5814 5815 5815 5815 5815 5815 5815 5815 5815 5815 5815 5815 5815 5815 5815 5814 5814 5813 5812 5811 5810 5810 5809 5808 5807 5806
5799 5801 5802 5802 5803 5803 5802 5803 5805 5805 5805 5805 5806 5806 5806 5806 5807 5807 5807 5808 5808 5809 5809 5809 5809 5810 5810 5810 5810 5811 5811 5811 5811 5811 5811 5811 5810 5810 5810 5809 5809 5808 5807 5806 5805 5805 5804 5803 5802
5794 5795 5797 5797 5797 5797 5797 5799 5800 5800 5800 5801 5801 5801 5801 5802 5802 5802 5802 5802 5803 5803 5804 5804 5804 5805 5805 5805 5805 5806 5806 5806 5806 5806 5806 5806 5806 5805 5805 5804 5804 5803 5802 5801 5801 5800 5799 5798 5798
5790 5790 5791 5791 5791 5792 5793 5794 5795 5795 5795 5796 5796 5796 5797 5797 5797 5797 5797 5797 5797 5798 5798 5798 5799 5799 5800 5800 5800 5800 5800 5801 5801 5801 5801 5801 5800 5800 5800 5799 5798 5798 5797 5796 5795 5795 5794 5793 5792
5784 5785 5785 5785 5786 5787 5788 5791 5790 5790 5790 5790 5791 5791 5791 5791 5791 5791 5792 5792 5792 5792 5793 5793 5793 5794 5794 5795 5794 5795 5795 5795 5795 5795 5795 5795 5795 5794 5794 5794 5793 5792 5792 5791 5790 5789 5788 5787 5787
5778 5779 5780 5781 5781 5781 5782 5786 5784 5784 5784 5785 5785 5785 5786 5786 5786 5786 5786 5786 5786 5787 5787 5787 5788 5788 5788 5789 5789 5789 5789 5789 5789 5789 5789 5789 5789 5789 5788 5788 5787 5787 5786 5785 5784 5783 5783 5782 5781